Time,TemperatureF,DewpointF,PressureIn,WindDirection,WindDirectionDegrees,WindSpeedMPH,WindSpeedGustMPH,Humidity,HourlyPrecipIn,Conditions,Clouds,dailyrainin,SoftwareType,DateUTC
2013-04-25 00:01:00,52.0,27.0,30.17,WSW,250,10.0,16.0,37,-99.99,,,-99.99,,2013-04-25 00:01:00,
2013-04-25 00:12:00,52.0,27.0,30.17,WSW,250,10.0,16.0,37,-99.99,,,-99.99,,2013-04-25 00:12:00,
2013-04-25 00:22:00,50.0,27.0,30.17,WSW,240,10.0,16.0,39,-99.99,,,-99.99,,2013-04-25 00:22:00,
2013-04-25 00:32:00,50.0,27.0,30.17,WSW,240,8.0,-999.0,39,-99.99,,,-99.99,,2013-04-25 00:32:00,
2013-04-25 00:41:00,50.0,25.0,30.17,WSW,240,8.0,-999.0,37,-99.99,,,-99.99,,2013-04-25 00:41:00,
2013-04-25 00:52:00,48.0,27.0,30.17,WSW,240,8.0,-999.0,42,-99.99,,,-99.99,,2013-04-25 00:52:00,
2013-04-25 01:01:00,48.0,27.0,30.17,WSW,240,7.0,-999.0,42,-99.99,,,-99.99,,2013-04-25 01:01:00,
2013-04-25 01:11:00,48.0,27.0,30.17,WSW,240,7.0,-999.0,42,-99.99,,,-99.99,,2013-04-25 01:11:00,
2013-04-25 01:22:00,46.0,27.0,30.18,SW,230,6.0,-999.0,45,-99.99,,,-99.99,,2013-04-25 01:22:00,
2013-04-25 01:32:00,46.0,27.0,30.18,WSW,240,6.0,-999.0,45,-99.99,,,-99.99,,2013-04-25 01:32:00,
2013-04-25 01:42:00,46.0,27.0,30.18,SW,230,6.0,-999.0,45,-99.99,,,-99.99,,2013-04-25 01:42:00,
2013-04-25 01:52:00,46.0,27.0,30.18,SW,230,6.0,-999.0,45,-99.99,,,-99.99,,2013-04-25 01:52:00,
2013-04-25 02:02:00,46.0,28.0,30.19,SW,230,6.0,-999.0,49,-99.99,,,-99.99,,2013-04-25 02:02:00,
2013-04-25 02:11:00,46.0,28.0,30.19,SW,230,6.0,-999.0,49,-99.99,,,-99.99,,2013-04-25 02:11:00,
2013-04-25 02:22:00,45.0,28.0,30.20,SW,220,5.0,-999.0,52,-99.99,,,-99.99,,2013-04-25 02:22:00,
2013-04-25 02:32:00,43.0,28.0,30.20,SSW,210,7.0,-999.0,56,-99.99,,,-99.99,,2013-04-25 02:32:00,
2013-04-25 02:42:00,43.0,28.0,30.20,SSW,210,7.0,-999.0,56,-99.99,,,-99.99,,2013-04-25 02:42:00,
2013-04-25 02:52:00,43.0,28.0,30.20,SSW,210,7.0,-999.0,56,-99.99,,,-99.99,,2013-04-25 02:52:00,
2013-04-25 03:02:00,45.0,28.0,30.21,SSW,210,6.0,-999.0,52,-99.99,,,-99.99,,2013-04-25 03:02:00,
2013-04-25 03:11:00,45.0,28.0,30.21,SSW,210,6.0,-999.0,52,-99.99,,,-99.99,,2013-04-25 03:11:00,
2013-04-25 03:22:00,43.0,28.0,30.21,SSW,200,7.0,-999.0,56,-99.99,,,-99.99,,2013-04-25 03:22:00,
2013-04-25 03:33:00,41.0,30.0,30.21,SSW,200,7.0,-999.0,65,-99.99,,,-99.99,,2013-04-25 03:33:00,
2013-04-25 03:42:00,41.0,30.0,30.21,SSW,200,8.0,-999.0,65,-99.99,,,-99.99,,2013-04-25 03:42:00,
2013-04-25 03:52:00,43.0,30.0,30.20,SSW,200,8.0,-999.0,60,-99.99,,,-99.99,,2013-04-25 03:52:00,
2013-04-25 04:03:00,43.0,28.0,30.20,SSW,200,8.0,-999.0,56,-99.99,,,-99.99,,2013-04-25 04:03:00,
2013-04-25 04:12:00,43.0,28.0,30.20,SSW,200,8.0,-999.0,56,-99.99,,,-99.99,,2013-04-25 04:12:00,
2013-04-25 04:22:00,41.0,28.0,30.20,SSW,210,7.0,-999.0,60,-99.99,,,-99.99,,2013-04-25 04:22:00,
2013-04-25 04:32:00,41.0,28.0,30.20,SSW,200,7.0,-999.0,60,-99.99,,,-99.99,,2013-04-25 04:32:00,
2013-04-25 04:43:00,41.0,28.0,30.20,SSW,200,7.0,-999.0,60,-99.99,,,-99.99,,2013-04-25 04:43:00,
2013-04-25 04:52:00,41.0,28.0,30.20,SSW,210,8.0,-999.0,60,-99.99,,,-99.99,,2013-04-25 04:52:00,
2013-04-25 05:02:00,41.0,28.0,30.20,SSW,210,8.0,-999.0,60,-99.99,,,-99.99,,2013-04-25 05:02:00,
2013-04-25 05:12:00,41.0,28.0,30.20,SSW,210,8.0,-999.0,60,-99.99,,,-99.99,,2013-04-25 05:12:00,
2013-04-25 05:21:00,43.0,28.0,30.20,SSW,200,9.0,-999.0,56,-99.99,,,-99.99,,2013-04-25 05:21:00,
2013-04-25 05:32:00,43.0,28.0,30.20,SSW,200,10.0,-999.0,56,-99.99,,,-99.99,,2013-04-25 05:32:00,
2013-04-25 05:42:00,43.0,28.0,30.19,SSW,200,9.0,-999.0,56,-99.99,,,-99.99,,2013-04-25 05:42:00,
2013-04-25 05:52:00,43.0,28.0,30.19,SSW,200,9.0,-999.0,56,-99.99,,,-99.99,,2013-04-25 05:52:00,
2013-04-25 06:02:00,43.0,28.0,30.19,SSW,200,9.0,-999.0,56,-99.99,,,-99.99,,2013-04-25 06:02:00,
2013-04-25 06:11:00,43.0,28.0,30.19,SSW,200,9.0,-999.0,56,-99.99,,,-99.99,,2013-04-25 06:11:00,
2013-04-25 06:22:00,43.0,28.0,30.19,SSW,210,8.0,-999.0,56,-99.99,,,-99.99,,2013-04-25 06:22:00,
2013-04-25 06:31:00,43.0,28.0,30.19,SSW,210,8.0,-999.0,56,-99.99,,,-99.99,,2013-04-25 06:31:00,
2013-04-25 06:41:00,43.0,30.0,30.19,SSW,210,8.0,-999.0,60,-99.99,,,-99.99,,2013-04-25 06:41:00,
2013-04-25 06:52:00,43.0,30.0,30.18,SSW,210,9.0,-999.0,60,-99.99,,,-99.99,,2013-04-25 06:52:00,
2013-04-25 07:02:00,43.0,28.0,30.18,SSW,210,7.0,-999.0,56,-99.99,,,-99.99,,2013-04-25 07:02:00,
2013-04-25 07:11:00,43.0,28.0,30.18,SSW,210,7.0,-999.0,56,-99.99,,,-99.99,,2013-04-25 07:11:00,
2013-04-25 07:22:00,43.0,30.0,30.18,SSW,210,9.0,-999.0,60,-99.99,,,-99.99,,2013-04-25 07:22:00,
2013-04-25 07:32:00,43.0,30.0,30.19,SW,220,9.0,-999.0,60,-99.99,,,-99.99,,2013-04-25 07:32:00,
2013-04-25 07:42:00,43.0,30.0,30.19,SW,220,8.0,-999.0,60,-99.99,,,-99.99,,2013-04-25 07:42:00,
2013-04-25 07:52:00,45.0,28.0,30.19,SW,220,9.0,-999.0,52,-99.99,,,-99.99,,2013-04-25 07:52:00,
2013-04-25 08:01:00,45.0,30.0,30.19,SW,230,9.0,-999.0,56,-99.99,,,-99.99,,2013-04-25 08:01:00,
2013-04-25 08:11:00,45.0,30.0,30.19,SW,230,9.0,-999.0,56,-99.99,,,-99.99,,2013-04-25 08:11:00,
2013-04-25 08:21:00,45.0,30.0,30.19,WSW,240,10.0,16.0,56,-99.99,,,-99.99,,2013-04-25 08:21:00,
2013-04-25 08:31:00,45.0,30.0,30.19,WSW,240,10.0,-999.0,56,-99.99,,,-99.99,,2013-04-25 08:31:00,
2013-04-25 08:41:00,45.0,30.0,30.19,WSW,240,10.0,-999.0,56,-99.99,,,-99.99,,2013-04-25 08:41:00,
2013-04-25 08:52:00,43.0,30.0,30.20,WSW,250,13.0,17.0,60,-99.99,,,-99.99,,2013-04-25 08:52:00,
2013-04-25 09:01:00,43.0,30.0,30.21,WSW,250,12.0,-999.0,60,-99.99,,,-99.99,,2013-04-25 09:01:00,
2013-04-25 09:11:00,43.0,30.0,30.21,WSW,250,12.0,-999.0,60,-99.99,,,-99.99,,2013-04-25 09:11:00,
2013-04-25 09:21:00,43.0,30.0,30.21,West,260,10.0,-999.0,60,-99.99,,,-99.99,,2013-04-25 09:21:00,
2013-04-25 09:33:00,43.0,30.0,30.21,WSW,250,10.0,-999.0,60,-99.99,,,-99.99,,2013-04-25 09:33:00,
2013-04-25 09:42:00,43.0,32.0,30.21,WSW,250,12.0,-999.0,65,-99.99,,,-99.99,,2013-04-25 09:42:00,
2013-04-25 09:52:00,43.0,32.0,30.21,West,260,10.0,-999.0,65,-99.99,,,-99.99,,2013-04-25 09:52:00,
2013-04-25 10:02:00,43.0,32.0,30.21,West,260,9.0,-999.0,65,-99.99,,,-99.99,,2013-04-25 10:02:00,
2013-04-25 10:12:00,43.0,32.0,30.21,West,260,9.0,-999.0,65,-99.99,,,-99.99,,2013-04-25 10:12:00,
2013-04-25 10:22:00,41.0,32.0,30.23,West,270,8.0,-999.0,70,-99.99,,,-99.99,,2013-04-25 10:22:00,
2013-04-25 10:32:00,41.0,32.0,30.23,West,260,9.0,-999.0,70,-99.99,,,-99.99,,2013-04-25 10:32:00,
2013-04-25 10:42:00,41.0,32.0,30.23,West,260,9.0,-999.0,70,-99.99,,,-99.99,,2013-04-25 10:42:00,
2013-04-25 10:53:00,41.0,32.0,30.23,West,260,9.0,-999.0,70,-99.99,,,-99.99,,2013-04-25 10:53:00,
2013-04-25 11:02:00,41.0,32.0,30.23,West,260,8.0,-999.0,70,-99.99,,,-99.99,,2013-04-25 11:02:00,
2013-04-25 11:12:00,41.0,32.0,30.23,West,260,8.0,-999.0,70,-99.99,,,-99.99,,2013-04-25 11:12:00,
2013-04-25 11:22:00,41.0,32.0,30.24,West,260,9.0,-999.0,70,-99.99,,,-99.99,,2013-04-25 11:22:00,
2013-04-25 11:32:00,41.0,32.0,30.24,West,270,9.0,-999.0,70,-99.99,,,-99.99,,2013-04-25 11:32:00,
2013-04-25 11:42:00,39.0,32.0,30.25,West,270,8.0,-999.0,75,-99.99,,,-99.99,,2013-04-25 11:42:00,
2013-04-25 11:52:00,39.0,32.0,30.25,West,270,8.0,-999.0,75,-99.99,,,-99.99,,2013-04-25 11:52:00,
2013-04-25 12:01:00,41.0,32.0,30.25,West,270,7.0,-999.0,70,-99.99,,,-99.99,,2013-04-25 12:01:00,
2013-04-25 12:12:00,41.0,32.0,30.25,West,270,7.0,-999.0,70,-99.99,,,-99.99,,2013-04-25 12:12:00,
2013-04-25 12:21:00,41.0,32.0,30.25,West,260,8.0,-999.0,70,-99.99,,,-99.99,,2013-04-25 12:21:00,
2013-04-25 12:31:00,43.0,34.0,30.26,WSW,250,7.0,-999.0,70,-99.99,,,-99.99,,2013-04-25 12:31:00,
2013-04-25 12:41:00,43.0,34.0,30.27,WSW,250,5.0,-999.0,70,-99.99,,,-99.99,,2013-04-25 12:41:00,
2013-04-25 12:52:00,43.0,34.0,30.27,WSW,250,7.0,-999.0,70,-99.99,,,-99.99,,2013-04-25 12:52:00,
2013-04-25 13:02:00,45.0,34.0,30.27,West,260,5.0,-999.0,65,-99.99,,,-99.99,,2013-04-25 13:02:00,
2013-04-25 13:11:00,45.0,34.0,30.27,West,260,5.0,-999.0,65,-99.99,,,-99.99,,2013-04-25 13:11:00,
2013-04-25 13:21:00,45.0,34.0,30.28,West,260,6.0,-999.0,65,-99.99,,,-99.99,,2013-04-25 13:21:00,
2013-04-25 13:32:00,46.0,34.0,30.29,West,260,7.0,-999.0,61,-99.99,,,-99.99,,2013-04-25 13:32:00,
2013-04-25 13:42:00,46.0,34.0,30.29,West,260,7.0,-999.0,61,-99.99,,,-99.99,,2013-04-25 13:42:00,
2013-04-25 13:52:00,48.0,34.0,30.29,West,260,8.0,-999.0,57,-99.99,,,-99.99,,2013-04-25 13:52:00,
2013-04-25 14:01:00,48.0,34.0,30.30,West,260,7.0,-999.0,57,-99.99,,,-99.99,,2013-04-25 14:01:00,
2013-04-25 14:11:00,48.0,34.0,30.30,West,260,7.0,-999.0,57,-99.99,,,-99.99,,2013-04-25 14:11:00,
2013-04-25 14:21:00,50.0,32.0,30.30,West,260,6.0,-999.0,49,-99.99,,,-99.99,,2013-04-25 14:21:00,
2013-04-25 14:32:00,50.0,32.0,30.30,West,270,8.0,-999.0,49,-99.99,,,-99.99,,2013-04-25 14:32:00,
2013-04-25 14:42:00,50.0,32.0,30.30,West,280,6.0,-999.0,49,-99.99,,,-99.99,,2013-04-25 14:42:00,
2013-04-25 14:52:00,52.0,30.0,30.30,WNW,290,10.0,-999.0,43,-99.99,,,-99.99,,2013-04-25 14:52:00,
2013-04-25 15:02:00,52.0,30.0,30.30,WNW,290,7.0,-999.0,43,-99.99,,,-99.99,,2013-04-25 15:02:00,
2013-04-25 15:11:00,52.0,30.0,30.30,WNW,290,7.0,-999.0,43,-99.99,,,-99.99,,2013-04-25 15:11:00,
2013-04-25 15:21:00,54.0,27.0,30.31,NW,310,13.0,-999.0,34,-99.99,,,-99.99,,2013-04-25 15:21:00,
2013-04-25 15:33:00,54.0,27.0,30.31,West,280,9.0,17.0,34,-99.99,,,-99.99,,2013-04-25 15:33:00,
2013-04-25 15:42:00,54.0,25.0,30.31,West,280,14.0,-999.0,32,-99.99,,,-99.99,,2013-04-25 15:42:00,
2013-04-25 15:53:00,55.0,27.0,30.32,West,280,14.0,-999.0,32,-99.99,,,-99.99,,2013-04-25 15:53:00,
2013-04-25 16:02:00,55.0,23.0,30.32,WNW,300,13.0,-999.0,28,-99.99,,,-99.99,,2013-04-25 16:02:00,
2013-04-25 16:13:00,55.0,23.0,30.32,WNW,300,13.0,-999.0,28,-99.99,,,-99.99,,2013-04-25 16:13:00,
2013-04-25 16:24:00,55.0,25.0,30.33,WNW,290,15.0,-999.0,30,-99.99,,,-99.99,,2013-04-25 16:24:00,
2013-04-25 16:32:00,55.0,25.0,30.33,West,280,13.0,20.0,30,-99.99,,,-99.99,,2013-04-25 16:32:00,
2013-04-25 16:42:00,57.0,25.0,30.33,WNW,300,12.0,18.0,28,-99.99,,,-99.99,,2013-04-25 16:42:00,
2013-04-25 16:52:00,57.0,25.0,30.33,NW,310,16.0,21.0,28,-99.99,,,-99.99,,2013-04-25 16:52:00,
2013-04-25 17:02:00,57.0,23.0,30.33,WNW,300,17.0,24.0,26,-99.99,,,-99.99,,2013-04-25 17:02:00,
2013-04-25 17:11:00,57.0,23.0,30.33,WNW,300,17.0,24.0,26,-99.99,,,-99.99,,2013-04-25 17:11:00,
2013-04-25 17:22:00,57.0,25.0,30.33,WNW,290,9.0,-999.0,28,-99.99,,,-99.99,,2013-04-25 17:22:00,
2013-04-25 17:32:00,57.0,23.0,30.33,West,270,12.0,17.0,26,-99.99,,,-99.99,,2013-04-25 17:32:00,
2013-04-25 17:42:00,59.0,23.0,30.33,WNW,290,15.0,20.0,24,-99.99,,,-99.99,,2013-04-25 17:42:00,
2013-04-25 17:53:00,59.0,25.0,30.33,WNW,300,9.0,14.0,26,-99.99,,,-99.99,,2013-04-25 17:53:00,
2013-04-25 18:01:00,59.0,23.0,30.33,West,280,7.0,18.0,24,-99.99,,,-99.99,,2013-04-25 18:01:00,
2013-04-25 18:11:00,59.0,23.0,30.33,West,280,7.0,18.0,24,-99.99,,,-99.99,,2013-04-25 18:11:00,
2013-04-25 18:21:00,59.0,25.0,30.32,NW,310,7.0,23.0,26,-99.99,,,-99.99,,2013-04-25 18:21:00,
2013-04-25 18:32:00,59.0,23.0,30.32,WNW,300,9.0,20.0,24,-99.99,,,-99.99,,2013-04-25 18:32:00,
2013-04-25 18:42:00,61.0,25.0,30.32,WNW,290,14.0,-999.0,25,-99.99,,,-99.99,,2013-04-25 18:42:00,
2013-04-25 18:53:00,61.0,25.0,30.32,West,270,12.0,16.0,25,-99.99,,,-99.99,,2013-04-25 18:53:00,
2013-04-25 19:01:00,61.0,25.0,30.32,West,270,9.0,17.0,25,-99.99,,,-99.99,,2013-04-25 19:01:00,
2013-04-25 19:12:00,61.0,25.0,30.32,West,270,9.0,17.0,25,-99.99,,,-99.99,,2013-04-25 19:12:00,
2013-04-25 19:21:00,61.0,23.0,30.31,North,0,0.0,-999.0,23,-99.99,,,-99.99,,2013-04-25 19:21:00,
2013-04-25 19:31:00,61.0,25.0,30.31,West,280,8.0,-999.0,25,-99.99,,,-99.99,,2013-04-25 19:31:00,
2013-04-25 19:41:00,61.0,25.0,30.31,WNW,300,9.0,-999.0,25,-99.99,,,-99.99,,2013-04-25 19:41:00,
2013-04-25 19:52:00,61.0,25.0,30.31,West,280,10.0,16.0,25,-99.99,,,-99.99,,2013-04-25 19:52:00,
2013-04-25 20:02:00,61.0,25.0,30.31,West,260,8.0,18.0,25,-99.99,,,-99.99,,2013-04-25 20:02:00,
2013-04-25 20:11:00,61.0,25.0,30.31,West,260,8.0,18.0,25,-99.99,,,-99.99,,2013-04-25 20:11:00,
2013-04-25 20:22:00,63.0,27.0,30.30,NW,320,5.0,-999.0,25,-99.99,,,-99.99,,2013-04-25 20:22:00,
2013-04-25 20:32:00,63.0,25.0,30.30,SW,230,9.0,-999.0,23,-99.99,,,-99.99,,2013-04-25 20:32:00,
2013-04-25 20:42:00,63.0,25.0,30.30,WNW,290,7.0,-999.0,23,-99.99,,,-99.99,,2013-04-25 20:42:00,
2013-04-25 20:52:00,63.0,25.0,30.29,WNW,290,5.0,16.0,23,-99.99,,,-99.99,,2013-04-25 20:52:00,
2013-04-25 21:01:00,63.0,27.0,30.29,WSW,240,6.0,-999.0,25,-99.99,,,-99.99,,2013-04-25 21:01:00,
2013-04-25 21:11:00,63.0,27.0,30.29,WSW,240,6.0,-999.0,25,-99.99,,,-99.99,,2013-04-25 21:11:00,
2013-04-25 21:21:00,63.0,27.0,30.28,WSW,240,6.0,-999.0,25,-99.99,,,-99.99,,2013-04-25 21:21:00,
2013-04-25 21:33:00,63.0,25.0,30.28,West,270,5.0,-999.0,23,-99.99,,,-99.99,,2013-04-25 21:33:00,
2013-04-25 21:42:00,63.0,23.0,30.28,West,270,6.0,-999.0,21,-99.99,,,-99.99,,2013-04-25 21:42:00,
2013-04-25 21:53:00,63.0,27.0,30.28,West,270,9.0,-999.0,25,-99.99,,,-99.99,,2013-04-25 21:53:00,
2013-04-25 22:02:00,63.0,23.0,30.27,West,270,5.0,-999.0,21,-99.99,,,-99.99,,2013-04-25 22:02:00,
2013-04-25 22:12:00,63.0,23.0,30.27,West,270,5.0,-999.0,21,-99.99,,,-99.99,,2013-04-25 22:12:00,
2013-04-25 22:22:00,63.0,23.0,30.27,WNW,300,7.0,-999.0,21,-99.99,,,-99.99,,2013-04-25 22:22:00,
2013-04-25 22:33:00,63.0,23.0,30.27,WSW,240,3.0,-999.0,21,-99.99,,,-99.99,,2013-04-25 22:33:00,
2013-04-25 22:42:00,63.0,23.0,30.27,SSW,210,3.0,-999.0,21,-99.99,,,-99.99,,2013-04-25 22:42:00,
2013-04-25 22:53:00,63.0,25.0,30.27,SW,220,3.0,-999.0,23,-99.99,,,-99.99,,2013-04-25 22:53:00,
2013-04-25 23:02:00,63.0,23.0,30.27,SW,230,5.0,-999.0,21,-99.99,,,-99.99,,2013-04-25 23:02:00,
2013-04-25 23:12:00,63.0,23.0,30.27,SW,230,5.0,-999.0,21,-99.99,,,-99.99,,2013-04-25 23:12:00,
2013-04-25 23:22:00,63.0,27.0,30.27,SW,220,3.0,-999.0,25,-99.99,,,-99.99,,2013-04-25 23:22:00,
2013-04-25 23:32:00,63.0,25.0,30.27,WSW,250,6.0,-999.0,23,-99.99,,,-99.99,,2013-04-25 23:32:00,
2013-04-25 23:41:00,63.0,27.0,30.27,WSW,240,5.0,-999.0,25,-99.99,,,-99.99,,2013-04-25 23:41:00,
2013-04-25 23:52:00,63.0,25.0,30.26,SW,230,5.0,-999.0,23,-99.99,,,-99.99,,2013-04-25 23:52:00,